Language: 


Des rapports , des résumés tant et plus, au choix de chacun....


Données statistiques de la station
Quotidien Rapport Aout 17, 2017 Unités:  Métrique    Anglais   les deux
« Précédent Jour
Suivant Jour »
Quotidien Hebdomadaire Mensuel Annuel Actuel
  Haut: Bas: Moyen:
Température: 22.8 °C 0.0 °C 17.3 °C
Pt de rosée: 20.0 °C 13.0 °C 16.3 °C
Humidité: 97 % 0 % 79 %
Vitesse du vent: 24.8 km/h 0.0 km/h 7.5 km/h
Rafales: 25.6 km/h - -
Vent:- - SSW
Pression: 1018.2 hPa 0.0 hPa -
Précipitation: 3.8 mm    
Historical Graphs
 
 
Données statistiques pour Aout 17, 2017
Heure Température Point de rosée Pression Vent Vitesse du vent Refales Humidité Pluie (taux horaire)
00:04 16.3 °C 14.0 °C 1016.8 hPa Calm   6.4 km/h 84 % 0.0 mm
00:09 16.3 °C 14.0 °C 1016.8 hPa Calm   6.4 km/h 84 % 0.0 mm
00:14 16.3 °C 14.0 °C 1016.8 hPa Calm   3.5 km/h 84 % 0.0 mm
00:19 16.3 °C 14.0 °C 1016.8 hPa Calm   4.3 km/h 84 % 0.0 mm
00:24 16.3 °C 14.0 °C 1016.8 hPa Calm   4.3 km/h 84 % 0.0 mm
00:29 16.3 °C 14.0 °C 1016.8 hPa SE 4.0 km/h 10.5 km/h 84 % 0.0 mm
00:34 16.4 °C 13.0 °C 1016.8 hPa ESE 5.5 km/h 10.5 km/h 83 % 0.0 mm
00:39 16.5 °C 14.0 °C 1016.8 hPa Calm   8.7 km/h 83 % 0.0 mm
00:44 16.5 °C 14.0 °C 1018.2 hPa SE 2.6 km/h 8.7 km/h 83 % 0.0 mm
00:49 16.5 °C 14.0 °C 1018.2 hPa Calm   6.4 km/h 83 % 0.0 mm
00:54 16.5 °C 14.0 °C 1018.2 hPa SE 4.0 km/h 7.9 km/h 82 % 0.0 mm
00:59 16.6 °C 14.0 °C 1016.8 hPa SSE 6.1 km/h 11.1 km/h 82 % 0.0 mm
01:05 16.9 °C 14.0 °C 1016.8 hPa ESE 6.4 km/h 11.1 km/h 82 % 0.0 mm
01:10 17.0 °C 14.0 °C 1016.8 hPa Calm   9.3 km/h 81 % 0.0 mm
01:15 17.1 °C 14.0 °C 1016.8 hPa SE 10.1 km/h 10.1 km/h 80 % 0.0 mm
01:20 17.2 °C 14.0 °C 1016.8 hPa SE 9.3 km/h 10.1 km/h 80 % 0.0 mm
01:25 17.2 °C 14.0 °C 1016.8 hPa ESE 4.7 km/h 19.8 km/h 79 % 0.0 mm
01:30 17.2 °C 13.0 °C 1016.1 hPa SE 10.1 km/h 19.8 km/h 78 % 0.0 mm
01:35 17.3 °C 13.0 °C 1016.1 hPa ESE 6.9 km/h 10.5 km/h 77 % 0.0 mm
01:40 17.3 °C 13.0 °C 1016.1 hPa Calm   10.1 km/h 77 % 0.0 mm
01:45 17.3 °C 13.0 °C 1016.1 hPa Calm   8.7 km/h 77 % 0.0 mm
01:50 17.4 °C 13.0 °C 1016.1 hPa SSE 4.3 km/h 7.6 km/h 76 % 0.0 mm
01:55 17.5 °C 13.0 °C 1016.1 hPa Calm   7.6 km/h 76 % 0.0 mm
02:00 17.5 °C 13.0 °C 1016.1 hPa Calm   5.5 km/h 76 % 0.0 mm
02:05 17.6 °C 13.0 °C 1016.1 hPa Calm   6.1 km/h 76 % 0.0 mm
02:10 17.7 °C 13.0 °C 1016.1 hPa Calm   6.1 km/h 76 % 0.0 mm
02:15 17.8 °C 13.0 °C 1016.1 hPa SSE 4.3 km/h 7.6 km/h 76 % 0.0 mm
02:20 17.9 °C 14.0 °C 1016.1 hPa SE 9.3 km/h 11.6 km/h 76 % 0.0 mm
02:25 18.0 °C 14.0 °C 1016.1 hPa SSE 5.5 km/h 11.6 km/h 75 % 0.0 mm
02:30 18.1 °C 13.0 °C 1016.1 hPa South 6.4 km/h 9.7 km/h 74 % 0.0 mm
02:35 18.1 °C 13.0 °C 1016.1 hPa SSW 10.1 km/h 14.0 km/h 74 % 0.0 mm
02:41 18.1 °C 13.0 °C 1016.1 hPa SSE 5.8 km/h 14.0 km/h 74 % 0.0 mm
02:46 18.1 °C 13.0 °C 1016.1 hPa Calm   12.6 km/h 74 % 0.0 mm
02:51 17.9 °C 13.0 °C 1016.1 hPa SSE 4.7 km/h 6.1 km/h 74 % 0.0 mm
02:56 17.9 °C 13.0 °C 1016.1 hPa South 5.0 km/h 7.6 km/h 74 % 0.0 mm
03:01 0.0 °C 13.0 °C 0.0 hPa Calm     0 % 0.0 mm
03:06 17.6 °C 13.0 °C 1015.1 hPa South 1.4 km/h 6.9 km/h 75 % 0.0 mm
03:11 17.5 °C 13.0 °C 1015.1 hPa SSE 4.0 km/h 9.7 km/h 76 % 0.0 mm
03:16 17.5 °C 13.0 °C 1015.1 hPa South 2.1 km/h 9.7 km/h 76 % 0.0 mm
03:21 17.4 °C 13.0 °C 1015.1 hPa Calm   6.1 km/h 76 % 0.0 mm
03:26 17.4 °C 13.0 °C 1015.1 hPa Calm   9.0 km/h 77 % 0.0 mm
03:32 17.4 °C 13.0 °C 1015.1 hPa Calm   9.0 km/h 77 % 0.0 mm
03:36 17.4 °C 13.0 °C 1015.1 hPa SSW 4.3 km/h 9.3 km/h 77 % 0.0 mm
03:42 17.5 °C 14.0 °C 1015.1 hPa South 5.8 km/h 11.6 km/h 78 % 0.0 mm
03:47 17.5 °C 14.0 °C 1015.1 hPa SSE 5.0 km/h 11.6 km/h 78 % 0.0 mm
03:52 17.5 °C 14.0 °C 1015.1 hPa South 5.5 km/h 12.6 km/h 78 % 0.0 mm
03:57 17.5 °C 14.0 °C 1015.1 hPa SSE 4.0 km/h 12.6 km/h 78 % 0.0 mm
04:02 17.5 °C 14.0 °C 1015.1 hPa SSE 6.1 km/h 9.0 km/h 79 % 0.0 mm
04:07 17.5 °C 14.0 °C 1015.1 hPa Calm   9.3 km/h 79 % 0.0 mm
04:12 17.5 °C 14.0 °C 1015.1 hPa South 4.0 km/h 9.3 km/h 79 % 0.0 mm
04:17 17.5 °C 14.0 °C 1015.1 hPa SW 4.7 km/h 12.2 km/h 80 % 0.0 mm
04:22 17.5 °C 14.0 °C 1015.1 hPa South 11.6 km/h 12.2 km/h 80 % 0.0 mm
04:27 17.5 °C 14.0 °C 1015.1 hPa SSW 5.5 km/h 11.6 km/h 81 % 0.0 mm
04:32 17.5 °C 14.0 °C 1015.1 hPa South 6.9 km/h 9.7 km/h 81 % 0.0 mm
04:37 17.5 °C 15.0 °C 1015.1 hPa South 6.1 km/h 10.1 km/h 82 % 0.0 mm
04:42 17.4 °C 14.0 °C 1015.1 hPa South 4.0 km/h 10.1 km/h 82 % 0.0 mm
04:47 17.4 °C 14.0 °C 1015.1 hPa South 7.2 km/h 8.7 km/h 82 % 0.0 mm
04:52 17.4 °C 14.0 °C 1015.1 hPa South 6.4 km/h 8.7 km/h 82 % 0.0 mm
04:57 17.4 °C 14.0 °C 1014.1 hPa SSE 4.7 km/h 9.7 km/h 83 % 0.0 mm
05:02 17.4 °C 14.0 °C 1014.1 hPa South 5.5 km/h 9.7 km/h 83 % 0.0 mm
05:07 17.4 °C 14.0 °C 1014.1 hPa Calm   11.6 km/h 83 % 0.0 mm
05:14 17.4 °C 15.0 °C 1014.1 hPa Calm   11.6 km/h 84 % 0.0 mm
05:19 17.4 °C 15.0 °C 1014.1 hPa Calm   9.3 km/h 85 % 0.0 mm
05:21 17.4 °C 15.0 °C 1014.1 hPa SSW 1.8 km/h 9.3 km/h 84 % 0.0 mm
05:26 17.4 °C 15.0 °C 1014.1 hPa SSE 9.3 km/h 9.3 km/h 85 % 0.0 mm
05:31 17.5 °C 15.0 °C 1014.1 hPa South 8.7 km/h 9.3 km/h 86 % 0.0 mm
05:33 17.5 °C 15.0 °C 1014.1 hPa SSW 7.9 km/h 10.5 km/h 86 % 0.0 mm
05:38 17.6 °C 15.0 °C 1014.1 hPa SSW 6.9 km/h 10.5 km/h 86 % 0.0 mm
05:43 17.6 °C 15.0 °C 1014.1 hPa Calm   10.5 km/h 86 % 0.0 mm
05:48 17.7 °C 16.0 °C 1014.1 hPa SW 3.5 km/h 9.3 km/h 87 % 0.0 mm
05:53 17.7 °C 16.0 °C 1014.1 hPa SSW 5.5 km/h 9.3 km/h 87 % 0.0 mm
05:58 17.8 °C 16.0 °C 1014.1 hPa Calm   9.7 km/h 87 % 0.0 mm
06:03 17.8 °C 16.0 °C 1014.1 hPa SSW 4.3 km/h 9.7 km/h 87 % 0.0 mm
06:08 17.9 °C 16.0 °C 1014.1 hPa South 2.6 km/h 6.4 km/h 87 % 0.0 mm
06:13 17.9 °C 16.0 °C 1014.1 hPa SSW 5.8 km/h 10.1 km/h 87 % 0.0 mm
06:18 18.0 °C 16.0 °C 1014.1 hPa Calm   11.9 km/h 87 % 0.0 mm
06:23 18.0 °C 16.0 °C 1014.1 hPa South 7.6 km/h 11.9 km/h 87 % 0.0 mm
06:28 18.0 °C 16.0 °C 1014.1 hPa South 5.8 km/h 10.5 km/h 86 % 0.0 mm
06:33 18.0 °C 16.0 °C 1014.1 hPa South 5.8 km/h 10.5 km/h 86 % 0.0 mm
06:38 18.0 °C 16.0 °C 1014.1 hPa South 1.8 km/h 9.7 km/h 86 % 0.0 mm
06:43 18.0 °C 16.0 °C 1014.1 hPa SW 4.3 km/h 9.7 km/h 86 % 0.0 mm
06:48 18.0 °C 16.0 °C 1014.1 hPa South 5.0 km/h 8.7 km/h 86 % 0.0 mm
06:53 18.0 °C 16.0 °C 1014.1 hPa Calm   7.9 km/h 87 % 0.0 mm
06:58 18.0 °C 16.0 °C 1014.1 hPa South 1.8 km/h 6.4 km/h 87 % 0.0 mm
07:04 18.0 °C 16.0 °C 1014.1 hPa Calm   6.4 km/h 87 % 0.0 mm
07:09 18.0 °C 16.0 °C 1014.1 hPa SSE 3.5 km/h 5.0 km/h 87 % 0.0 mm
07:14 18.0 °C 16.0 °C 1014.1 hPa Calm   6.9 km/h 87 % 0.0 mm
07:19 18.0 °C 16.0 °C 1014.1 hPa SSW 5.0 km/h 9.0 km/h 87 % 0.0 mm
07:24 18.1 °C 16.0 °C 1014.1 hPa Calm   9.0 km/h 87 % 0.0 mm
07:29 18.2 °C 16.0 °C 1014.1 hPa Calm   5.0 km/h 87 % 0.0 mm
07:34 18.2 °C 16.0 °C 1014.1 hPa SSW 1.4 km/h 7.9 km/h 87 % 0.0 mm
07:39 18.2 °C 16.0 °C 1014.1 hPa SW 1.4 km/h 7.9 km/h 87 % 0.0 mm
07:44 18.3 °C 16.0 °C 1013.1 hPa SSW 5.5 km/h 6.4 km/h 87 % 0.0 mm
07:46 18.3 °C 16.0 °C 1013.1 hPa SSW 1.4 km/h 9.0 km/h 87 % 0.0 mm
07:51 18.4 °C 16.0 °C 1013.1 hPa South 3.5 km/h 9.0 km/h 87 % 0.0 mm
07:56 18.4 °C 16.0 °C 1013.1 hPa SSE 4.3 km/h 9.7 km/h 87 % 0.0 mm
08:01 18.5 °C 16.0 °C 1013.1 hPa South 2.6 km/h 15.4 km/h 86 % 0.0 mm
08:06 18.6 °C 16.0 °C 1013.1 hPa SSE 9.0 km/h 15.4 km/h 86 % 0.0 mm
08:11 18.6 °C 16.0 °C 1013.1 hPa Calm   9.7 km/h 85 % 0.0 mm
08:16 18.7 °C 16.0 °C 1013.1 hPa South 8.7 km/h 10.1 km/h 85 % 0.0 mm
08:21 18.8 °C 16.0 °C 1013.1 hPa SSW 6.4 km/h 10.1 km/h 85 % 0.0 mm
08:26 18.8 °C 16.0 °C 1013.1 hPa SW 5.5 km/h 10.1 km/h 84 % 0.0 mm
08:31 18.8 °C 16.0 °C 1013.1 hPa Calm   10.1 km/h 84 % 0.0 mm
08:36 18.8 °C 16.0 °C 1013.1 hPa Calm   9.3 km/h 84 % 0.0 mm
08:41 18.8 °C 16.0 °C 1013.1 hPa SSW 9.0 km/h 12.6 km/h 83 % 0.0 mm
08:46 18.8 °C 16.0 °C 1013.1 hPa SSW 8.7 km/h 12.6 km/h 83 % 0.0 mm
08:51 18.8 °C 16.0 °C 1013.1 hPa WSW 5.0 km/h 10.5 km/h 83 % 0.0 mm
08:56 18.8 °C 16.0 °C 1013.1 hPa South 11.6 km/h 11.6 km/h 83 % 0.0 mm
09:01 18.7 °C 16.0 °C 1013.1 hPa South 4.0 km/h 11.9 km/h 83 % 0.0 mm
09:06 18.7 °C 16.0 °C 1013.1 hPa South 5.5 km/h 11.9 km/h 83 % 0.0 mm
09:11 18.6 °C 16.0 °C 1014.1 hPa SSW 9.7 km/h 13.0 km/h 84 % 0.0 mm
09:16 18.4 °C 16.0 °C 1014.1 hPa SSW 10.5 km/h 13.0 km/h 85 % 0.0 mm
09:22 18.2 °C 16.0 °C 1014.1 hPa WSW 7.9 km/h 14.0 km/h 87 % 0.0 mm
09:27 18.0 °C 16.0 °C 1014.1 hPa Calm   14.0 km/h 88 % 0.0 mm
09:32 17.8 °C 16.0 °C 1014.1 hPa SW 8.7 km/h 16.6 km/h 90 % 0.0 mm
09:37 17.6 °C 16.0 °C 1014.1 hPa SW 6.9 km/h 16.6 km/h 91 % 0.0 mm
09:42 17.5 °C 16.0 °C 1014.1 hPa SW 5.0 km/h 12.2 km/h 92 % 0.0 mm
09:47 17.3 °C 16.0 °C 1014.1 hPa WSW 1.4 km/h 10.8 km/h 93 % 0.0 mm
09:52 17.2 °C 16.0 °C 1014.1 hPa SSW 6.4 km/h 10.5 km/h 93 % 0.0 mm
09:57 17.2 °C 16.0 °C 1014.1 hPa Calm   9.7 km/h 94 % 0.0 mm
10:02 17.1 °C 16.0 °C 1014.1 hPa SW 9.0 km/h 10.5 km/h 94 % 0.0 mm
10:07 17.1 °C 16.0 °C 1014.1 hPa Calm   10.5 km/h 95 % 0.0 mm
10:12 17.1 °C 16.0 °C 1014.1 hPa SW 6.9 km/h 9.7 km/h 95 % 0.0 mm
10:17 17.1 °C 17.0 °C 1014.1 hPa WSW 5.5 km/h 9.7 km/h 96 % 0.0 mm
10:22 17.2 °C 17.0 °C 1014.1 hPa SSW 9.0 km/h 9.3 km/h 96 % 0.0 mm
10:27 17.3 °C 17.0 °C 1014.1 hPa Calm   9.3 km/h 96 % 0.0 mm
10:32 17.5 °C 17.0 °C 1014.1 hPa South 6.1 km/h 9.7 km/h 96 % 0.0 mm
10:37 17.6 °C 17.0 °C 1014.1 hPa SSW 6.4 km/h 9.7 km/h 97 % 0.0 mm
10:42 17.8 °C 17.0 °C 1014.1 hPa SW 5.5 km/h 12.6 km/h 97 % 0.0 mm
10:47 17.8 °C 17.0 °C 1014.1 hPa SW 6.1 km/h 12.6 km/h 97 % 0.0 mm
10:52 17.9 °C 18.0 °C 1014.1 hPa SSW 2.6 km/h 11.1 km/h 97 % 0.0 mm
10:57 17.9 °C 18.0 °C 1013.1 hPa SW 8.7 km/h 14.0 km/h 96 % 0.0 mm
11:02 17.9 °C 18.0 °C 1014.1 hPa SSW 11.9 km/h 14.0 km/h 96 % 0.0 mm
11:07 17.9 °C 18.0 °C 1014.1 hPa WSW 6.9 km/h 16.9 km/h 96 % 0.0 mm
11:09 17.9 °C 18.0 °C 1014.1 hPa WSW 9.7 km/h 16.9 km/h 96 % 0.0 mm
11:14 17.9 °C 18.0 °C 1014.1 hPa SSW 5.5 km/h 16.9 km/h 96 % 0.0 mm
11:19 17.9 °C 18.0 °C 1014.1 hPa WSW 9.7 km/h 13.7 km/h 96 % 0.0 mm
11:24 17.9 °C 18.0 °C 1014.1 hPa WSW 9.0 km/h 13.7 km/h 96 % 0.0 mm
11:35 0.0 °C 18.0 °C 0.0 hPa WSW 6.9 km/h 13.0 km/h 0 % 0.0 mm
11:40 0.0 °C 18.0 °C 1014.1 hPa SW 8.7 km/h 15.8 km/h 0 % 0.0 mm
11:45 0.0 °C 18.0 °C 1013.1 hPa SSW 11.9 km/h 15.8 km/h 0 % 0.0 mm
11:50 0.0 °C 18.0 °C 1013.1 hPa SW 9.0 km/h 14.0 km/h 0 % 0.0 mm
11:55 0.0 °C 18.0 °C 1013.1 hPa WSW 8.7 km/h 14.0 km/h 0 % 0.0 mm
12:00 0.0 °C 18.0 °C 1014.1 hPa SW 11.9 km/h 13.0 km/h 0 % 0.0 mm
12:05 0.0 °C 18.0 °C 1014.1 hPa SW 7.9 km/h 15.8 km/h 0 % 0.0 mm
12:10 0.0 °C 18.0 °C 1014.1 hPa SSW 10.5 km/h 15.8 km/h 0 % 0.0 mm
12:15 0.0 °C 18.0 °C 1014.1 hPa SSW 7.2 km/h 15.8 km/h 0 % 0.0 mm
12:20 0.0 °C 18.0 °C 1014.1 hPa SSW 11.9 km/h 15.8 km/h 0 % 0.0 mm
12:25 0.0 °C 18.0 °C 1014.1 hPa SSW 14.3 km/h 15.4 km/h 0 % 0.0 mm
12:30 0.0 °C 18.0 °C 1014.1 hPa SW 13.7 km/h 16.3 km/h 0 % 0.0 mm
12:35 0.0 °C 18.0 °C 1014.1 hPa SSW 7.9 km/h 16.6 km/h 0 % 0.0 mm
12:40 0.0 °C 18.0 °C 1014.1 hPa South 6.9 km/h 16.6 km/h 0 % 0.0 mm
12:45 0.0 °C 18.0 °C 1014.1 hPa SW 4.3 km/h 16.6 km/h 0 % 0.0 mm
12:50 0.0 °C 18.0 °C 1013.1 hPa SSW 11.6 km/h 16.6 km/h 0 % 0.0 mm
12:55 0.0 °C 18.0 °C 1013.1 hPa SSW 5.5 km/h 14.0 km/h 0 % 0.0 mm
13:01 19.8 °C 19.0 °C 1013.1 hPa SW 10.5 km/h 12.6 km/h 93 % 0.0 mm
13:06 19.9 °C 19.0 °C 1013.1 hPa WSW 13.0 km/h 16.9 km/h 92 % 0.0 mm
13:11 19.9 °C 19.0 °C 1013.1 hPa South 12.6 km/h 16.9 km/h 92 % 0.0 mm
13:16 19.9 °C 19.0 °C 1013.1 hPa SW 12.6 km/h 16.9 km/h 92 % 0.0 mm
13:21 19.9 °C 19.0 °C 1013.1 hPa SSW 14.0 km/h 15.8 km/h 92 % 0.0 mm
13:26 19.9 °C 19.0 °C 1013.1 hPa WSW 11.6 km/h 14.3 km/h 92 % 0.0 mm
13:31 20.1 °C 19.0 °C 1014.1 hPa West 5.5 km/h 15.8 km/h 93 % 0.0 mm
13:36 20.1 °C 19.0 °C 1014.1 hPa SW 6.4 km/h 15.8 km/h 93 % 0.0 mm
13:41 0.0 °C 19.0 °C 1014.1 hPa SW 14.0 km/h 14.0 km/h 0 % 0.0 mm
13:46 0.0 °C 19.0 °C 1014.1 hPa WSW 13.7 km/h 20.1 km/h 0 % 0.0 mm
13:51 20.4 °C 19.0 °C 1014.1 hPa SSE 11.6 km/h 20.6 km/h 92 % 0.0 mm
13:56 20.5 °C 19.0 °C 1014.1 hPa WSW 11.9 km/h 20.6 km/h 92 % 0.0 mm
14:01 20.5 °C 19.0 °C 1014.1 hPa South 9.0 km/h 15.8 km/h 92 % 0.0 mm
14:06 20.5 °C 19.0 °C 1014.1 hPa SW 10.1 km/h 16.9 km/h 92 % 0.0 mm
14:11 20.5 °C 19.0 °C 1014.1 hPa SSW 11.1 km/h 16.9 km/h 92 % 0.0 mm
14:16 20.6 °C 19.0 °C 1014.1 hPa SW 10.8 km/h 17.2 km/h 92 % 0.0 mm
14:21 20.6 °C 19.0 °C 1014.1 hPa WSW 8.7 km/h 17.2 km/h 92 % 0.0 mm
14:22 20.6 °C 19.0 °C 1014.1 hPa SSW 9.3 km/h 17.2 km/h 92 % 0.0 mm
14:27 20.6 °C 19.0 °C 1014.1 hPa SW 15.8 km/h 16.3 km/h 92 % 0.0 mm
14:32 20.6 °C 19.0 °C 1013.1 hPa WSW 14.3 km/h 17.7 km/h 92 % 0.0 mm
14:37 20.6 °C 19.0 °C 1013.1 hPa SSW 7.6 km/h 17.7 km/h 92 % 0.0 mm
14:42 20.6 °C 19.0 °C 1013.1 hPa WSW 7.6 km/h 16.9 km/h 92 % 0.0 mm
14:47 20.6 °C 19.0 °C 1014.1 hPa South 14.0 km/h 20.9 km/h 92 % 0.0 mm
14:52 20.6 °C 19.0 °C 1014.1 hPa SSW 16.6 km/h 20.9 km/h 92 % 0.0 mm
14:58 20.6 °C 19.0 °C 1014.1 hPa SW 19.8 km/h 19.8 km/h 92 % 0.0 mm
15:03 20.6 °C 19.0 °C 1014.1 hPa SSW 11.9 km/h 19.8 km/h 92 % 0.0 mm
15:08 20.6 °C 19.0 °C 1014.1 hPa WSW 6.9 km/h 16.9 km/h 92 % 0.0 mm
15:13 20.6 °C 19.0 °C 1014.1 hPa South 5.8 km/h 21.2 km/h 92 % 0.0 mm
15:14 20.6 °C 19.0 °C 1014.1 hPa WSW 9.0 km/h 21.2 km/h 92 % 0.0 mm
15:19 20.5 °C 20.0 °C 1014.1 hPa SW 6.4 km/h 21.2 km/h 93 % 0.0 mm
15:24 20.5 °C 20.0 °C 1014.1 hPa WSW 14.0 km/h 14.0 km/h 93 % 0.0 mm
15:29 20.5 °C 20.0 °C 1014.1 hPa South 9.7 km/h 16.3 km/h 93 % 0.0 mm
15:34 20.3 °C 19.0 °C 1014.1 hPa South 10.1 km/h 16.3 km/h 93 % 0.0 mm
15:39 20.3 °C 19.0 °C 1014.1 hPa SW 5.5 km/h 14.0 km/h 93 % 0.3 mm
15:44 20.3 °C 19.0 °C 1014.1 hPa SW 5.5 km/h 14.0 km/h 93 % 0.5 mm
15:49 20.3 °C 19.0 °C 1014.1 hPa SSW 10.5 km/h 13.7 km/h 93 % 0.5 mm
15:54 20.3 °C 19.0 °C 1014.1 hPa SW 10.1 km/h 13.7 km/h 93 % 0.5 mm
15:59 20.3 °C 19.0 °C 1014.1 hPa SSW 11.6 km/h 13.7 km/h 93 % 0.5 mm
16:04 20.3 °C 19.0 °C 1014.1 hPa SSW 11.6 km/h 13.7 km/h 93 % 0.8 mm
16:09 20.3 °C 19.0 °C 1014.1 hPa SSW 11.6 km/h 13.7 km/h 93 % 0.8 mm
16:14 20.3 °C 19.0 °C 1014.1 hPa South 10.5 km/h 10.5 km/h 93 % 0.8 mm
16:19 20.3 °C 19.0 °C 1014.1 hPa SW 11.1 km/h 11.1 km/h 93 % 0.8 mm
16:24 20.3 °C 19.0 °C 1014.1 hPa SSW 5.8 km/h 11.6 km/h 93 % 0.8 mm
16:29 20.3 °C 19.0 °C 1014.1 hPa SW 15.8 km/h 15.8 km/h 93 % 0.8 mm
16:34 20.3 °C 19.0 °C 1013.1 hPa SSW 6.1 km/h 15.8 km/h 93 % 0.8 mm
16:39 20.3 °C 19.0 °C 1013.1 hPa SW 9.3 km/h 14.3 km/h 93 % 0.5 mm
16:44 20.3 °C 19.0 °C 1013.1 hPa SSW 4.0 km/h 15.8 km/h 93 % 0.3 mm
16:49 20.3 °C 19.0 °C 1014.1 hPa SW 6.9 km/h 15.8 km/h 93 % 0.3 mm
16:54 20.3 °C 19.0 °C 1014.1 hPa SW 11.9 km/h 14.3 km/h 93 % 0.3 mm
16:59 20.3 °C 19.0 °C 1014.1 hPa WSW 20.6 km/h 25.3 km/h 93 % 0.0 mm
17:04 20.3 °C 19.0 °C 1013.1 hPa West 10.1 km/h 25.3 km/h 93 % 0.0 mm
17:09 20.3 °C 19.0 °C 1013.1 hPa West 17.2 km/h 23.3 km/h 93 % 0.0 mm
17:14 20.3 °C 19.0 °C 1013.1 hPa SSW 16.9 km/h 19.8 km/h 93 % 0.0 mm
17:19 20.3 °C 19.0 °C 1013.1 hPa WSW 13.0 km/h 23.3 km/h 93 % 0.0 mm
17:24 20.3 °C 19.0 °C 1013.1 hPa WSW 16.9 km/h 23.3 km/h 93 % 0.0 mm
17:27 20.3 °C 19.0 °C 1013.1 hPa SSW 17.2 km/h 23.3 km/h 93 % 0.0 mm
17:32 20.3 °C 19.0 °C 1013.1 hPa WSW 14.0 km/h 23.0 km/h 93 % 0.0 mm
17:42 0.0 °C 19.0 °C 1013.1 hPa WSW 19.5 km/h 23.8 km/h 0 % 1.0 mm
17:47 22.8 °C 18.0 °C 1013.1 hPa WSW 10.5 km/h 20.4 km/h 74 % 1.0 mm
17:52 22.5 °C 18.0 °C 1013.1 hPa WSW 20.6 km/h 21.2 km/h 72 % 1.0 mm
17:57 22.5 °C 18.0 °C 1013.1 hPa WSW 20.6 km/h 21.2 km/h 72 % 1.0 mm
18:02 22.0 °C 17.0 °C 1014.1 hPa WSW 24.8 km/h 24.8 km/h 71 % 1.0 mm
18:04 22.1 °C 17.0 °C 1014.1 hPa West 20.1 km/h 24.8 km/h 71 % 1.0 mm
18:09 22.2 °C 17.0 °C 1014.1 hPa WSW 23.3 km/h 24.8 km/h 72 % 1.0 mm
18:14 22.4 °C 17.0 °C 1014.1 hPa WSW 23.3 km/h 23.8 km/h 72 % 1.0 mm
18:19 22.4 °C 17.0 °C 1014.1 hPa WSW 23.3 km/h 23.3 km/h 71 % 1.0 mm
18:24 22.2 °C 17.0 °C 1014.1 hPa SSW 21.2 km/h 24.8 km/h 72 % 1.0 mm
18:29 22.3 °C 17.0 °C 1014.1 hPa SSW 13.0 km/h 24.8 km/h 73 % 1.0 mm
18:34 22.3 °C 17.0 °C 1013.1 hPa WSW 19.8 km/h 21.2 km/h 73 % 1.0 mm
18:39 22.7 °C 18.0 °C 1013.1 hPa West 14.3 km/h 21.2 km/h 72 % 0.0 mm
18:40 22.7 °C 18.0 °C 1013.1 hPa West 14.3 km/h 21.2 km/h 72 % 0.0 mm
18:45 22.6 °C 17.0 °C 1013.1 hPa SSW 13.7 km/h 25.6 km/h 70 % 0.0 mm
18:50 22.0 °C 16.0 °C 1013.1 hPa WSW 23.3 km/h 25.6 km/h 68 % 0.0 mm
18:55 21.3 °C 16.0 °C 1013.1 hPa West 15.8 km/h 25.6 km/h 70 % 0.0 mm
19:00 21.0 °C 16.0 °C 1014.1 hPa WSW 14.8 km/h 20.9 km/h 71 % 0.0 mm
19:05 21.0 °C 16.0 °C 1014.1 hPa WSW 12.6 km/h 19.5 km/h 74 % 0.0 mm
19:15 21.5 °C 17.0 °C 1014.1 hPa SW 5.8 km/h 24.8 km/h 74 % 0.0 mm
19:20 21.8 °C 17.0 °C 1014.1 hPa WSW 13.7 km/h 24.8 km/h 74 % 0.0 mm
19:25 21.8 °C 17.0 °C 1014.1 hPa WSW 11.9 km/h 15.8 km/h 72 % 0.0 mm
19:30 21.8 °C 17.0 °C 1014.1 hPa West 13.7 km/h 15.8 km/h 72 % 0.0 mm
19:35 21.5 °C 16.0 °C 1014.1 hPa West 21.9 km/h 24.5 km/h 70 % 0.0 mm
19:41 21.3 °C 16.0 °C 1014.1 hPa West 19.8 km/h 24.5 km/h 70 % 0.0 mm
19:46 21.2 °C 16.0 °C 1014.1 hPa West 12.2 km/h 19.8 km/h 71 % 0.0 mm
19:51 21.0 °C 16.0 °C 1014.1 hPa West 14.8 km/h 19.8 km/h 72 % 0.0 mm
19:56 20.7 °C 16.0 °C 1014.1 hPa SW 12.6 km/h 17.7 km/h 73 % 0.0 mm
20:01 20.5 °C 16.0 °C 1014.1 hPa West 15.4 km/h 21.2 km/h 73 % 0.0 mm
20:06 20.3 °C 16.0 °C 1014.1 hPa WSW 16.9 km/h 24.8 km/h 74 % 0.0 mm
20:11 20.1 °C 16.0 °C 1014.1 hPa West 20.9 km/h 24.8 km/h 75 % 0.0 mm
20:16 19.9 °C 16.0 °C 1014.1 hPa WSW 17.2 km/h 20.9 km/h 76 % 0.0 mm
20:21 19.8 °C 15.0 °C 1014.1 hPa West 11.9 km/h 20.9 km/h 76 % 0.0 mm
20:26 19.6 °C 16.0 °C 1014.1 hPa West 10.5 km/h 17.7 km/h 77 % 0.0 mm
20:31 19.5 °C 16.0 °C 1014.1 hPa WSW 20.9 km/h 20.9 km/h 77 % 0.0 mm
20:36 19.3 °C 15.0 °C 1014.1 hPa WSW 10.1 km/h 20.9 km/h 78 % 0.0 mm
20:41 19.1 °C 15.0 °C 1014.1 hPa WSW 13.7 km/h 16.9 km/h 79 % 0.0 mm
20:46 19.0 °C 15.0 °C 1014.1 hPa WSW 10.1 km/h 16.3 km/h 79 % 0.0 mm
20:51 18.8 °C 15.0 °C 1014.1 hPa WSW 8.7 km/h 14.3 km/h 80 % 0.0 mm
20:56 18.5 °C 16.0 °C 1014.1 hPa Calm   14.0 km/h 82 % 0.0 mm
21:01 18.4 °C 15.0 °C 1014.1 hPa WSW 9.3 km/h 12.6 km/h 82 % 0.0 mm
21:06 18.3 °C 15.0 °C 1014.1 hPa WSW 14.8 km/h 14.8 km/h 83 % 0.0 mm
21:07 18.3 °C 15.0 °C 1014.1 hPa West 12.6 km/h 14.8 km/h 83 % 0.0 mm
21:12 18.3 °C 16.0 °C 1014.1 hPa WSW 10.1 km/h 14.8 km/h 84 % 0.0 mm
21:17 18.2 °C 16.0 °C 1014.1 hPa WSW 11.9 km/h 14.0 km/h 84 % 0.0 mm
21:22 18.2 °C 16.0 °C 1014.1 hPa WSW 12.6 km/h 14.0 km/h 85 % 0.0 mm
21:27 18.1 °C 16.0 °C 1014.1 hPa SSW 7.6 km/h 15.8 km/h 85 % 0.0 mm
21:33 18.0 °C 16.0 °C 1014.1 hPa SW 7.6 km/h 15.8 km/h 85 % 0.0 mm
21:38 17.9 °C 16.0 °C 1014.1 hPa SW 10.5 km/h 10.5 km/h 86 % 0.0 mm
21:43 17.9 °C 16.0 °C 1014.1 hPa Calm   10.5 km/h 86 % 0.0 mm
21:48 17.7 °C 15.0 °C 1014.1 hPa West 9.0 km/h 12.2 km/h 86 % 0.0 mm
21:53 17.7 °C 16.0 °C 1014.1 hPa WSW 5.8 km/h 12.2 km/h 87 % 0.0 mm
21:58 17.7 °C 16.0 °C 1014.1 hPa SW 5.5 km/h 11.9 km/h 87 % 0.0 mm
22:03 17.6 °C 16.0 °C 1014.1 hPa Calm   10.1 km/h 87 % 0.0 mm
22:08 17.6 °C 16.0 °C 1014.1 hPa WSW 6.4 km/h 10.1 km/h 88 % 0.0 mm
22:13 17.5 °C 16.0 °C 1014.1 hPa WSW 1.4 km/h 10.1 km/h 88 % 0.0 mm
22:18 17.4 °C 15.0 °C 1014.1 hPa Calm   9.7 km/h 88 % 0.0 mm
22:23 17.4 °C 15.0 °C 1014.1 hPa SSW 8.7 km/h 9.7 km/h 88 % 0.0 mm
22:28 17.4 °C 16.0 °C 1014.1 hPa SW 4.3 km/h 8.7 km/h 89 % 0.0 mm
22:33 17.3 °C 16.0 °C 1014.1 hPa Calm   8.7 km/h 89 % 0.0 mm
22:38 17.2 °C 16.0 °C 1014.1 hPa Calm   4.3 km/h 89 % 0.0 mm
22:43 17.1 °C 15.0 °C 1014.1 hPa Calm     89 % 0.0 mm
22:48 17.0 °C 15.0 °C 1014.1 hPa Calm     89 % 0.0 mm
22:53 17.0 °C 15.0 °C 1014.1 hPa Calm   5.5 km/h 90 % 0.0 mm
22:58 16.8 °C 15.0 °C 1014.1 hPa Calm   5.5 km/h 90 % 0.0 mm
23:03 16.8 °C 15.0 °C 1014.1 hPa Calm   4.7 km/h 90 % 0.0 mm
23:08 16.8 °C 15.0 °C 1014.1 hPa Calm   4.7 km/h 90 % 0.0 mm
23:13 16.6 °C 15.0 °C 1014.1 hPa Calm   4.3 km/h 91 % 0.0 mm
23:18 16.6 °C 15.0 °C 1014.1 hPa Calm   5.8 km/h 92 % 0.0 mm
23:23 16.6 °C 15.0 °C 1014.1 hPa Calm   5.8 km/h 92 % 0.0 mm
23:29 16.6 °C 15.0 °C 1014.1 hPa SW 4.0 km/h 9.3 km/h 92 % 0.0 mm
23:34 16.6 °C 16.0 °C 1014.1 hPa Calm   9.3 km/h 93 % 0.0 mm
23:39 16.5 °C 16.0 °C 1014.1 hPa South 1.8 km/h 7.9 km/h 93 % 0.0 mm
23:44 16.5 °C 16.0 °C 1014.1 hPa Calm   4.0 km/h 93 % 0.0 mm
23:49 16.3 °C 15.0 °C 1014.1 hPa SSW 4.3 km/h 4.7 km/h 93 % 0.0 mm
23:54 16.2 °C 15.0 °C 1014.1 hPa Calm   4.7 km/h 93 % 0.0 mm
23:59 16.2 °C 15.0 °C 1014.1 hPa Calm   3.5 km/h 93 % 0.0 mm
Le Gheer Warneton
Courtoisie de Weather Underground - 2.25 mb

Mise a jour : 17-12-17 03:12:12
Généré par Cumulus 1.9.4 (1099)